Tracking 20942 objects as of 13-Jul-2020
HD Live streaming from Space Station
objects crossing your sky now

THOR ABLESTAR DEB

Track THOR ABLESTAR DEB now!
10-day predictions


NORAD ID: 5715
Int'l Code: 1961-015JS
Perigee: 916.2 km
Apogee: 1,167.1 km
Inclination: 66.6 °
Period: 105.9 minutes
Semi major axis: 7412 km
RCS: 0.0104 m2 (small)
Launch date: June 29, 1961
Source: United States (US)
Launch site: AIR FORCE EASTERN TEST RANGE (AFETR)

Note: This is SATELLITE DEBRIS
aabbcc
Your satellite tracking list
Your tracking list is empty




NASA's NSSDC Master Catalog

Two Line Element Set (TLE):
1  5715U 61015JS  20193.29180802 +.00000256 +00000-0 +39890-3 0  9991
2  5715 066.5691 145.2215 0169206 324.2436 185.2508 13.60330983906696
Source of the keplerian elements: AFSPC